Location: Newark
(39.5667°N, 8.9833°E)
Time: 08:16:49
(UTC+00:00)

Vanguard 1 Rocket - All Passes

Search period start: 16 October 2019 00:00
Search period end: 26 October 2019 00:00
Orbit: 650 x 4226 km, 34.3° (Epoch: 13 October)

Date Brightness Start Highest point End Pass type
(mag) Time Alt. Az. Time Alt. Az. Time Alt. Az.
16 Oct - 08:15:03 10° S 08:26:15 30° SE 08:43:38 10° E daylight
16 Oct - 10:37:10 10° SW 10:53:40 64° SSE 11:19:12 10° E daylight
16 Oct - 13:03:54 10° W 13:25:57 77° S 13:51:34 10° ESE daylight
16 Oct - 15:33:57 10° W 15:58:56 61° SSW 16:19:56 10° SE daylight
16 Oct - 18:08:18 10° W 18:27:47 30° SW 18:42:24 10° S visible
17 Oct - 07:07:59 10° SSE 07:15:07 16° ESE 07:24:34 10° E daylight
17 Oct - 09:26:28 10° SW 09:40:14 51° SE 10:03:11 10° E daylight
17 Oct - 11:51:25 10° WSW 12:10:32 75° S 12:37:00 10° E daylight
17 Oct - 14:19:52 10° W 14:43:49 70° SSW 15:07:32 10° ESE daylight
17 Oct - 16:51:40 10° W 17:14:50 43° SW 17:32:56 10° SSE visible
17 Oct - 19:34:35 10° WSW 19:41:09 12° WSW 19:47:02 10° SW visible
18 Oct - 08:16:47 10° SSW 08:27:59 36° SE 08:46:28 10° E daylight
18 Oct - 10:39:44 10° WSW 10:55:53 69° SSE 11:21:37 10° E daylight
18 Oct - 13:06:38 10° W 13:28:17 76° S 13:54:02 10° ESE daylight
18 Oct - 15:36:35 10° W 16:00:50 56° SSW 16:21:59 10° SE daylight
18 Oct - 18:11:53 10° W 18:29:12 24° SW 18:43:05 10° S visible
19 Oct - 07:08:37 10° S 07:16:45 21° SE 07:28:40 10° E daylight
19 Oct - 09:28:52 10° SW 09:42:18 57° SSE 10:05:35 10° E daylight
19 Oct - 11:54:10 10° WSW 12:12:55 76° S 12:39:27 10° E daylight
19 Oct - 14:22:33 10° W 14:45:56 66° SSW 15:09:47 10° SE daylight
19 Oct - 16:54:35 10° W 17:16:25 37° SW 17:34:21 10° SSE visible
20 Oct - 08:18:52 10° SSW 08:29:53 42° SE 08:49:05 10° E daylight
20 Oct - 10:42:27 10° WSW 10:58:13 72° SSE 11:24:00 10° E daylight
20 Oct - 13:09:23 10° W 13:30:35 73° SSW 13:56:23 10° ESE daylight
20 Oct - 15:39:17 10° W 16:02:37 50° SW 16:23:48 10° SSE daylight
20 Oct - 18:16:19 10° W 18:30:38 19° SW 18:42:51 10° SSW visible
21 Oct - 07:10:01 10° S 07:18:31 26° SE 07:32:00 10° E daylight
21 Oct - 09:31:26 10° SW 09:44:31 62° SSE 10:07:57 10° E daylight
21 Oct - 11:56:58 10° W 12:15:20 76° S 12:41:51 10° ESE daylight
21 Oct - 14:25:16 10° W 14:47:59 61° SSW 15:11:51 10° SE daylight
21 Oct - 16:57:48 10° W 17:17:56 31° SW 17:35:19 10° S visible
22 Oct - 06:04:02 10° SE 06:07:57 12° ESE 06:12:40 10° E daylight
22 Oct - 08:21:11 10° SW 08:31:56 48° SE 08:51:34 10° E daylight
22 Oct - 10:45:14 10° WSW 11:00:39 74° S 11:26:22 10° E daylight
22 Oct - 13:12:09 10° W 13:32:51 69° SSW 13:58:37 10° ESE daylight
22 Oct - 15:42:09 10° W 16:04:20 43° SW 16:25:17 10° SSE daylight
22 Oct - 18:22:37 10° W 18:32:04 13° WSW 18:40:44 10° SW visible
23 Oct - 07:11:52 10° SSW 07:20:26 32° SE 07:34:57 10° E daylight
23 Oct - 09:34:08 10° WSW 09:46:53 67° SSE 10:10:17 10° E daylight
23 Oct - 11:59:48 10° W 12:17:45 74° S 12:44:10 10° ESE daylight
23 Oct - 14:28:02 10° W 14:49:56 55° SSW 15:13:39 10° SE daylight
23 Oct - 17:01:32 10° W 17:19:26 25° SW 17:35:40 10° S visible
24 Oct - 06:04:12 10° SSE 06:09:46 17° SE 06:17:27 10° E daylight
24 Oct - 08:23:42 10° SW 08:34:11 54° SSE 08:53:58 10° E daylight
24 Oct - 10:48:05 10° W 11:03:09 75° S 11:28:43 10° E daylight
24 Oct - 13:14:58 10° W 13:35:04 65° SSW 14:00:39 10° SE daylight
24 Oct - 15:45:14 10° W 16:06:01 37° SW 16:26:23 10° SSE daylight
25 Oct - 07:14:02 10° SSW 07:22:31 38° SE 07:37:40 10° E daylight
25 Oct - 09:36:57 10° WSW 09:49:22 71° SSE 10:12:37 10° E daylight
25 Oct - 12:02:40 10° W 12:20:10 71° SSW 12:46:22 10° ESE daylight
25 Oct - 14:30:55 10° W 14:51:51 48° SSW 15:15:11 10° SSE daylight
25 Oct - 17:06:07 10° W 17:20:59 19° SW 17:35:02 10° SSW visible
